Weather History for Georgetown, SC

Change the Weather History Date:

Friday, December 5, 2014

  Actual Average Record
Temperature  
Mean Temperature 52 °F -  
Max Temperature 62 °F 63 °F 78 °F (2013)
Min Temperature 42 °F 39 °F 33 °F (2010)
Degree Days  
Heating Degree Days 13    
Growing Degree Days 2 (Base 50)    
Moisture  
Dew Point 50 °F    
Average Humidity 89    
Maximum Humidity 100    
Minimum Humidity 68    
Precipitation  
Precipitation 0.00 in - - ()
Sea Level Pressure  
Sea Level Pressure 30.37 in    
Wind  
Wind Speed 5 mph (NE)    
Max Wind Speed 8 mph    
Max Gust Speed -    
Visibility 10 miles    
Events      
Averages and records for this station are not official NWS values.
T = Trace of Precipitation, MM = Missing Value Source: NWS Daily Summary

Daily Weather History Graph

Daily Weather History Graph

Search for Another Location

Airport:

Trip Planner

Search our weather history database for the weather conditions in past years. The results will help you decide how hot, cold, wet, or windy it might be!

Date:

Astronomy

Dec. 05, 2014 Rise Set
Actual Time 7:06 AM EST 5:09 PM EST
Civil Twilight 6:38 AM EST 5:36 PM EST
Nautical Twilight 6:08 AM EST 6:07 PM EST
Astronomical Twilight 5:38 AM EST 6:37 PM EST
Moon 4:51 PM EST (12/5) 6:01 AM EST (12/5)
Length of Visible Light 10h 57m
Length of Day
10h 03m
Waxing Gibbous, 99% of the Moon is Illuminated
Dec 5
Waxing Gibbous
Dec 6
Full
Dec 14
Last Quarter
Dec 21
New
Dec 28
First Quarter

Hourly Weather History & Observations

Time (EST) Temp. Windchill Dew Point Humidity Pressure Visibility Wind Dir Wind Speed Gust Speed Precip Events Conditions
12:15 AM - - - N/A% 30.36 in 7.0 mi NE 5.8 mph - N/A   Clear
12:55 AM - - - N/A% 30.37 in 7.0 mi NNE 4.6 mph - N/A   Mostly Cloudy
1:15 AM - - - N/A% 30.36 in 10.0 mi NE 4.6 mph - N/A   Overcast
1:35 AM - - - N/A% 30.36 in 10.0 mi NNE 5.8 mph - N/A   Scattered Clouds
1:55 AM - - - N/A% 30.36 in 7.0 mi NNE 4.6 mph - N/A   Clear
2:15 AM - - - N/A% 30.37 in 7.0 mi NNE 5.8 mph - N/A   Clear
2:35 AM - - - N/A% 30.36 in 10.0 mi NE 4.6 mph - N/A   Clear
2:55 AM - - - N/A% 30.36 in 10.0 mi NE 5.8 mph - N/A   Clear
3:15 AM - - - N/A% 30.37 in 10.0 mi NE 4.6 mph - N/A   Clear
3:35 AM - - - N/A% 30.36 in 10.0 mi NNE 6.9 mph - N/A   Clear
3:55 AM - - - N/A% 30.36 in 10.0 mi NNE 4.6 mph - N/A   Clear
4:15 AM - - - N/A% 30.37 in 10.0 mi NE 5.8 mph - N/A   Clear
4:35 AM 46.4 °F 43.5 °F 46.4 °F 100% 30.36 in 10.0 mi NNE 5.8 mph - N/A   Clear
4:55 AM - - - N/A% 30.37 in 10.0 mi NNE 6.9 mph - N/A   Clear
5:15 AM 46.4 °F 42.9 °F 46.4 °F 100% 30.38 in 10.0 mi NNE 6.9 mph - N/A   Clear
5:35 AM 46.4 °F 44.3 °F 46.4 °F 100% 30.38 in 10.0 mi NNE 4.6 mph - N/A   Clear
5:55 AM 44.6 °F 42.2 °F 44.6 °F 100% 30.39 in 10.0 mi NE 4.6 mph - N/A   Clear
6:15 AM 44.6 °F 40.7 °F 44.6 °F 100% 30.40 in 10.0 mi NE 6.9 mph - N/A   Clear
6:35 AM 44.6 °F 40.2 °F 44.6 °F 100% 30.41 in 10.0 mi NE 8.1 mph - N/A   Clear
6:55 AM 44.6 °F 41.4 °F 44.6 °F 100% 30.41 in 10.0 mi NNE 5.8 mph - N/A   Clear
7:15 AM 44.6 °F 41.4 °F 44.6 °F 100% 30.41 in 10.0 mi NNE 5.8 mph - N/A   Clear
7:35 AM 42.8 °F 41.1 °F 42.8 °F 100% 30.42 in 10.0 mi North 3.5 mph - N/A   Clear
7:55 AM 44.6 °F 40.7 °F 44.6 °F 100% 30.42 in 10.0 mi North 6.9 mph - N/A   Clear
8:15 AM 46.4 °F 42.9 °F 46.4 °F 100% 30.42 in 10.0 mi NNE 6.9 mph - N/A   Clear
8:35 AM 46.4 °F 43.5 °F 46.4 °F 100% 30.42 in 10.0 mi NNE 5.8 mph - N/A   Clear
8:55 AM 48.2 °F - 46.4 °F 93% 30.42 in 10.0 mi North 6.9 mph - N/A   Clear
9:15 AM 48.2 °F - 46.4 °F 93% 30.43 in 10.0 mi NNE 6.9 mph - N/A   Clear
9:35 AM 50.0 °F - 46.4 °F 87% 30.44 in 10.0 mi NNE 6.9 mph - N/A   Clear
9:55 AM 51.8 °F - 46.4 °F 82% 30.44 in 10.0 mi North 5.8 mph - N/A   Clear
10:15 AM 51.8 °F - 48.2 °F 88% 30.43 in 10.0 mi NNE 8.1 mph - N/A   Clear
10:35 AM 53.6 °F - 48.2 °F 82% 30.43 in 10.0 mi NE 3.5 mph - N/A   Clear
10:55 AM 55.4 °F - 48.2 °F 77% 30.42 in 10.0 mi Calm Calm - N/A   Clear
11:15 AM 57.2 °F - 50.0 °F 77% 30.42 in 10.0 mi Calm Calm - N/A   Clear
11:35 AM 57.2 °F - 50.0 °F 77% 30.41 in 10.0 mi NNE 3.5 mph - N/A   Clear
11:55 AM 59.0 °F - 50.0 °F 72% 30.40 in 10.0 mi East 3.5 mph - N/A   Clear
12:15 PM 59.0 °F - 50.0 °F 72% 30.40 in 10.0 mi North 3.5 mph - N/A   Clear
12:35 PM 60.8 °F - 50.0 °F 68% 30.39 in 10.0 mi SE 5.8 mph - N/A   Clear
12:55 PM 60.8 °F - 50.0 °F 68% 30.38 in 10.0 mi East 4.6 mph - N/A   Clear
1:15 PM 60.8 °F - 51.8 °F 72% 30.37 in 10.0 mi East 4.6 mph - N/A   Clear
1:35 PM 60.8 °F - 51.8 °F 72% 30.36 in 10.0 mi East 5.8 mph - N/A   Clear
1:55 PM 60.8 °F - 51.8 °F 72% 30.36 in 10.0 mi NE 4.6 mph - N/A   Clear
3:35 PM 62.6 °F - 53.6 °F 72% 30.36 in 10.0 mi NNE 3.5 mph - N/A   Mostly Cloudy
3:55 PM 62.6 °F - 53.6 °F 72% 30.35 in 10.0 mi NNW 3.5 mph - N/A   Overcast
4:15 PM 62.6 °F - 53.6 °F 72% 30.36 in 10.0 mi East 4.6 mph - N/A   Mostly Cloudy
4:35 PM 59.0 °F - 53.6 °F 82% 30.36 in 10.0 mi SE 4.6 mph - N/A   Scattered Clouds
4:55 PM 57.2 °F - 53.6 °F 88% 30.36 in 10.0 mi ESE 6.9 mph - N/A   Mostly Cloudy
5:15 PM 55.4 °F - 53.6 °F 94% 30.36 in 10.0 mi ESE 5.8 mph - N/A   Overcast
5:35 PM 55.4 °F - 53.6 °F 94% 30.36 in 10.0 mi East 3.5 mph - N/A   Scattered Clouds
5:55 PM 53.6 °F - 51.8 °F 94% 30.36 in 10.0 mi NE 3.5 mph - N/A   Clear
6:15 PM 55.4 °F - 53.6 °F 94% 30.35 in 10.0 mi NE 3.5 mph - N/A   Mostly Cloudy
6:35 PM 55.4 °F - 53.6 °F 94% 30.35 in 10.0 mi ENE 5.8 mph - N/A   Overcast
6:55 PM 55.4 °F - 53.6 °F 94% 30.34 in 10.0 mi ENE 3.5 mph - N/A   Overcast
7:15 PM 55.4 °F - 53.6 °F 94% 30.35 in 10.0 mi Calm Calm - N/A   Overcast
7:35 PM 55.4 °F - 53.6 °F 94% 30.34 in 10.0 mi NNE 4.6 mph - N/A   Overcast
7:55 PM 57.2 °F - 53.6 °F 88% 30.35 in 10.0 mi North 4.6 mph - N/A   Overcast
8:15 PM 57.2 °F - 53.6 °F 88% 30.34 in 10.0 mi Calm Calm - N/A   Overcast
8:35 PM 57.2 °F - 53.6 °F 88% 30.35 in 10.0 mi Calm Calm - N/A   Overcast
8:55 PM 55.4 °F - 53.6 °F 94% 30.35 in 10.0 mi NNW 3.5 mph - N/A   Overcast
9:15 PM 55.4 °F - 53.6 °F 94% 30.35 in 10.0 mi Calm Calm - N/A   Mostly Cloudy
9:35 PM 55.4 °F - 51.8 °F 88% 30.35 in 10.0 mi North 3.5 mph - N/A   Mostly Cloudy
9:55 PM 53.6 °F - 51.8 °F 94% 30.34 in 10.0 mi Calm Calm - N/A   Scattered Clouds
10:15 PM 53.6 °F - 51.8 °F 94% 30.34 in 10.0 mi Calm Calm - N/A   Clear
10:35 PM 53.6 °F - 51.8 °F 94% 30.34 in 10.0 mi North 3.5 mph - N/A   Clear
10:55 PM 51.8 °F - 51.8 °F 100% 30.32 in 10.0 mi North 3.5 mph - N/A   Clear
11:15 PM 51.8 °F - 51.8 °F 100% 30.32 in 10.0 mi Calm Calm - N/A   Clear
11:35 PM 51.8 °F - 51.8 °F 100% 30.32 in 10.0 mi Calm Calm - N/A   Clear
11:55 PM 51.8 °F - 51.8 °F 100% 30.31 in 10.0 mi Calm Calm - N/A   Clear